Flushing, NY

1:58 PM EDT on August 30, 2016 (GMT -0400)
La Guardia

Weather History for KLGA - March, 2014

Change the Weather History Date:

Wednesday, March 5, 2014

  Actual Average Record
Temperature  
Mean Temperature 32 °F 39 °F  
Max Temperature 37 °F 46 °F 72 °F (1976)
Min Temperature 26 °F 32 °F 9 °F (1948)
Degree Days  
Heating Degree Days 33 26  
Month to date heating degree days 179 132  
Since 1 July heating degree days 3836 3561  
Cooling Degree Days 0 0  
Month to date cooling degree days 0 0  
Year to date cooling degree days 0 0  
Moisture  
Dew Point 8 °F    
Average Humidity 38    
Maximum Humidity 50    
Minimum Humidity 26    
Precipitation  
Precipitation 0.00 in 0.12 in 0.72 in (1984)
Month to date precipitation 0.01 0.58  
Year to date precipitation 7.30 6.51  
Snow  
Snow 0.00 in 0.20 in 8.10 in (2015)
Month to date snowfall 0.4 1.1  
Since 1 July snowfall 52.7 23.1  
Snow Depth 0.00 in    
Sea Level Pressure  
Sea Level Pressure 30.28 in    
Wind  
Wind Speed 8 mph (NE)    
Max Wind Speed 20 mph    
Max Gust Speed 25 mph    
Visibility 10 miles    
Events      
T = Trace of Precipitation, MM = Missing Value Source: NWS Daily Summary

Daily Weather History Graph

Daily Weather History Graph

Search for Another Location

Airport or City:

Trip Planner

Search our weather history database for the weather conditions in past years. The results will help you decide how hot, cold, wet, or windy it might be!

Date:

Astronomy

Mar. 05, 2014 Rise Set
Actual Time 6:23 AM EST 5:51 PM EST
Civil Twilight 5:55 AM EST 6:18 PM EST
Nautical Twilight 5:24 AM EST 6:50 PM EST
Astronomical Twilight 4:52 AM EST 7:22 PM EST
Moon 8:45 AM EST (3/5) 10:59 PM EST (3/5)
Length of Visible Light 12h 22m
Length of Day
11h 27m
Waxing Crescent, 23% of the Moon is Illuminated
Mar 5
Waxing Crescent
Mar 8
First Quarter
Mar 16
Full
Mar 23
Last Quarter
Mar 30
New

Hourly Weather History & Observations

Time (EST) Temp. Windchill Dew Point Humidity Pressure Visibility Wind Dir Wind Speed Gust Speed Precip Events Conditions
12:51 AM 28.9 °F - 1.9 °F 32% 30.25 in 10.0 mi Calm Calm - N/A   Mostly Cloudy
1:51 AM 28.9 °F - 1.9 °F 32% 30.24 in 10.0 mi Calm Calm - N/A   Mostly Cloudy
2:51 AM 28.9 °F 25.2 °F 3.9 °F 35% 30.21 in 10.0 mi NNE 3.5 mph - N/A   Scattered Clouds
3:51 AM 27.0 °F - 10.9 °F 51% 30.22 in 10.0 mi Calm Calm - N/A   Mostly Cloudy
4:51 AM 27.0 °F 23.0 °F 9.0 °F 47% 30.24 in 10.0 mi East 3.5 mph - N/A   Overcast
5:51 AM 28.0 °F - 9.0 °F 45% 30.23 in 10.0 mi Calm Calm - N/A   Overcast
6:51 AM 28.9 °F 22.8 °F 9.0 °F 43% 30.24 in 10.0 mi ENE 5.8 mph - N/A   Overcast
7:51 AM 28.9 °F 21.9 °F 7.0 °F 40% 30.25 in 10.0 mi ENE 6.9 mph - N/A   Overcast
8:51 AM 30.0 °F 24.1 °F 7.0 °F 38% 30.26 in 10.0 mi ENE 5.8 mph - N/A   Overcast
9:51 AM 30.9 °F 24.3 °F 8.1 °F 38% 30.25 in 10.0 mi NE 6.9 mph - N/A   Mostly Cloudy
10:51 AM 33.1 °F 26.9 °F 8.1 °F 35% 30.26 in 10.0 mi ENE 6.9 mph - N/A   Overcast
11:51 AM 33.1 °F 26.1 °F 7.0 °F 34% 30.25 in 10.0 mi ENE 8.1 mph - N/A   Mostly Cloudy
12:51 PM 34.0 °F 26.6 °F 6.1 °F 31% 30.23 in 10.0 mi ENE 9.2 mph - N/A   Mostly Cloudy
1:51 PM 36.0 °F 29.6 °F 8.1 °F 31% 30.22 in 10.0 mi ENE 8.1 mph - N/A   Mostly Cloudy
2:51 PM 35.1 °F 27.4 °F 8.1 °F 33% 30.24 in 10.0 mi North 10.4 mph - N/A   Mostly Cloudy
3:51 PM 35.1 °F 29.3 °F 8.1 °F 33% 30.26 in 10.0 mi North 6.9 mph - N/A   Overcast
4:51 PM 35.1 °F 26.9 °F 3.9 °F 27% 30.28 in 10.0 mi North 11.5 mph - N/A   Mostly Cloudy
5:51 PM 32.0 °F 23.0 °F 3.9 °F 31% 30.30 in 10.0 mi North 11.5 mph - N/A   Mostly Cloudy
6:51 PM 32.0 °F 23.6 °F 10.0 °F 40% 30.33 in 10.0 mi North 10.4 mph - N/A   Scattered Clouds
7:51 PM 30.9 °F 20.7 °F 8.1 °F 38% 30.37 in 10.0 mi North 13.8 mph - N/A   Scattered Clouds
8:51 PM 30.0 °F 19.5 °F 10.0 °F 43% 30.40 in 10.0 mi NNE 13.8 mph 23.0 mph N/A   Mostly Cloudy
9:51 PM 28.9 °F 18.2 °F 9.0 °F 43% 30.43 in 10.0 mi NNE 13.8 mph 21.9 mph N/A   Scattered Clouds
10:51 PM 28.0 °F 15.3 °F 9.0 °F 45% 30.43 in 10.0 mi North 18.4 mph 25.3 mph N/A   Scattered Clouds
11:51 PM 26.1 °F 14.0 °F 10.0 °F 51% 30.45 in 10.0 mi North 15.0 mph 24.2 mph N/A   Scattered Clouds